GW0614 Weather Reports


time (UTC)temp
C
wind
direction
speed
KPH
gust
KPH
rain 1hr
cm
rain 24hr
cm
rain mn
cm
humidity
%
barometer
mb
20260504215234 22 32 0.0 0.0 0.00 0.00 0.00 39 1010.0
20260504214730 22 215 1.6 3.2 0.00 0.00 0.00 38 1010.2
20260504214227 22 61 0.0 0.0 0.00 0.00 0.00 40 1010.0
20260504213724 22 46 1.6 3.2 0.00 0.00 0.00 38 1010.0
20260504213220 22 12 6.4 11.3 0.00 0.00 0.00 34 1010.2
20260504212717 22 32 6.4 9.7 0.00 0.00 0.00 35 1010.2
20260504212214 22 342 0.0 0.0 0.00 0.00 0.00 39 1010.2
20260504211711 22 79 4.8 8.0 0.00 0.00 0.00 37 1010.1
20260504211207 22 103 4.8 4.8 0.00 0.00 0.00 39 1010.4
20260504210705 22 46 0.0 1.6 0.00 0.00 0.00 40 1010.4
20260504210201 22 284 0.0 1.6 0.00 0.00 0.00 37 1010.0
20260504205658 22 23 1.6 3.2 0.00 0.00 0.00 36 1010.2
20260504205155 21 166 0.0 0.0 0.00 0.00 0.00 43 1010.3
20260504204654 21 83 6.4 9.7 0.00 0.00 0.00 44 1010.2
20260504204153 22 65 0.0 0.0 0.00 0.00 0.00 43 1010.2
20260504203651 22 207 1.6 3.2 0.00 0.00 0.00 42 1010.5
20260504203149 22 354 1.6 3.2 0.00 0.00 0.00 37 1010.2
20260504202649 21 59 1.6 3.2 0.00 0.00 0.00 40 1010.4
20260504202146 22 150 4.8 9.7 0.00 0.00 0.00 36 1010.4
20260504201643 20 165 4.8 8.0 0.00 0.00 0.00 40 1010.4
20260504201141 20 52 0.0 0.0 0.00 0.00 0.00 44 1010.4
20260504200637 20 52 0.0 0.0 0.00 0.00 0.00 44 1010.7
20260504200134 20 22 1.6 1.6 0.00 0.00 0.00 39 1010.6
20260504195630 21 57 0.0 0.0 0.00 0.00 0.00 48 1010.6
20260504195126 20 25 0.0 0.0 0.00 0.00 0.00 41 1010.5
20260504194623 21 25 1.6 3.2 0.00 0.00 0.00 38 1010.7
20260504194119 22 67 4.8 9.7 0.00 0.00 0.00 37 1010.9
20260504193615 21 12 0.0 0.0 0.00 0.00 0.00 41 1010.6
20260504193114 20 56 4.8 4.8 0.00 0.00 0.00 42 1010.9
20260504192612 20 355 1.6 3.2 0.00 0.00 0.00 40 1010.8
20260504192110 20 346 3.2 4.8 0.00 0.00 0.00 40 1010.9
20260504191608 20 85 3.2 3.2 0.00 0.00 0.00 42 1010.9
20260504191104 20 65 0.0 0.0 0.00 0.00 0.00 42 1010.7
20260504190600 20 78 1.6 1.6 0.00 0.00 0.00 44 1010.9
20260504190056 21 25 0.0 0.0 0.00 0.00 0.00 43 1010.8
20260504185553 20 106 8.0 11.3 0.00 0.00 0.00 38 1011.0
20260504185050 20 123 8.0 12.9 0.00 0.00 0.00 38 1011.1
20260504184545 20 56 4.8 8.0 0.00 0.00 0.00 43 1011.1
20260504184041 22 6 0.0 1.6 0.00 0.00 0.00 37 1010.9
20260504183538 22 66 3.2 4.8 0.00 0.00 0.00 42 1011.1
20260504183036 23 45 1.6 1.6 0.00 0.00 0.00 47 1011.2
20260504182533 21 55 11.3 16.1 0.00 0.00 0.00 37 1011.2
20260504182030 21 67 0.0 3.2 0.00 0.00 0.00 38 1011.4
20260504181527 22 74 3.2 4.8 0.00 0.00 0.00 39 1011.3
20260504181026 22 232 3.2 9.7 0.00 0.00 0.00 43 1011.4
20260504180524 22 195 3.2 3.2 0.00 0.00 0.00 40 1011.4
20260504180023 21 26 9.7 11.3 0.00 0.00 0.00 39 1011.5
20260504175519 21 9 4.8 8.0 0.00 0.00 0.00 38 1011.3
20260504175016 21 7 11.3 12.9 0.00 0.00 0.00 36 1011.5
20260504174514 22 120 11.3 16.1 0.00 0.00 0.00 39 1011.6
20260504174011 20 352 0.0 0.0 0.00 0.00 0.00 42 1011.6
20260504173508 20 229 3.2 3.2 0.00 0.00 0.00 40 1011.8
20260504173005 20 332 6.4 9.7 0.00 0.00 0.00 42 1011.6
20260504172501 20 10 4.8 9.7 0.00 0.00 0.00 41 1011.7
20260504171957 20 38 4.8 4.8 0.00 0.00 0.00 40 1011.9
20260504171454 20 341 1.6 1.6 0.00 0.00 0.00 44 1011.8
20260504170951 21 74 4.8 9.7 0.00 0.00 0.00 43 1012.0
20260504170447 20 67 0.0 1.6 0.00 0.00 0.00 46 1011.9
20260504160407 19 203 1.6 3.2 0.00 0.00 0.00 46 1012.6
20260504150831 17 58 4.8 9.7 0.00 0.00 0.00 42 1013.4
20260504150328 18 79 0.0 1.6 0.00 0.00 0.00 46 1013.3
20260504141258 16 308 6.4 8.0 0.00 0.00 0.00 47 1013.8
20260504140754 16 66 1.6 1.6 0.00 0.00 0.00 51 1013.8
20260504140250 16 183 3.2 4.8 0.00 0.00 0.00 50 1013.8
20260504130719 15 151 4.8 8.0 0.00 0.00 0.00 49 1014.0
20260504130215 14 140 8.0 12.9 0.00 0.00 0.00 47 1014.1
20260504120139 10 50 1.6 3.2 0.00 0.00 0.00 61 1014.3
20260504110606 7 47 0.0 0.0 0.00 0.00 0.00 76 1014.6
20260504100528 5 69 0.0 0.0 0.00 0.00 0.00 80 1014.3
20260504081921 7 57 0.0 0.0 0.00 0.00 0.00 68 1014.1
20260504081418 7 1 0.0 0.0 0.00 0.00 0.00 68 1014.2
20260504080914 7 43 0.0 0.0 0.00 0.00 0.00 72 1014.0
20260504080411 7 45 0.0 0.0 0.00 0.00 0.00 75 1014.1
20260504070339 6 55 0.0 0.0 0.00 0.00 0.00 85 1013.8
20260504050721 5 69 0.0 0.0 0.00 0.00 0.00 86 1014.6
20260504050218 5 69 0.0 0.0 0.00 0.00 0.00 85 1014.6
20260504045715 5 69 0.0 0.0 0.00 0.00 0.00 86 1014.7
20260504045210 5 69 0.0 0.0 0.00 0.00 0.00 84 1014.5
20260504044708 4 69 0.0 0.0 0.00 0.00 0.00 85 1014.7
20260504044205 4 69 0.0 0.0 0.00 0.00 0.00 87 1014.7
20260504043702 4 69 0.0 0.0 0.00 0.00 0.00 86 1014.6
20260504043158 4 69 0.0 0.0 0.00 0.00 0.00 85 1014.8
20260504042656 4 69 0.0 0.0 0.00 0.00 0.00 84 1014.6
20260504042152 4 69 0.0 0.0 0.00 0.00 0.00 85 1014.6
20260504041648 3 69 0.0 0.0 0.00 0.00 0.00 86 1014.8
20260504041144 3 68 0.0 0.0 0.00 0.00 0.00 87 1014.6
20260504040642 3 68 0.0 0.0 0.00 0.00 0.00 86 1014.5
20260504040139 3 66 0.0 0.0 0.00 0.00 0.00 87 1014.5
20260504035635 3 65 0.0 0.0 0.00 0.00 0.00 87 1014.5
20260504035132 3 65 0.0 0.0 0.00 0.00 0.00 87 1014.5
20260504034630 3 66 0.0 0.0 0.00 0.00 0.00 88 1014.3
20260504034126 3 64 0.0 0.0 0.00 0.00 0.00 87 1014.3
20260504033624 2 64 0.0 0.0 0.00 0.00 0.00 88 1014.6
20260504033121 2 64 0.0 0.0 0.00 0.00 0.00 89 1014.5
20260504032618 2 64 0.0 0.0 0.00 0.00 0.00 89 1014.5
20260504032115 2 64 0.0 0.0 0.00 0.00 0.00 88 1014.3
20260504031612 2 64 0.0 0.0 0.00 0.00 0.00 88 1014.5
20260504031108 2 64 0.0 0.0 0.00 0.00 0.00 88 1014.5
20260504030605 2 62 0.0 0.0 0.00 0.00 0.00 87 1014.5
20260504025559 2 62 0.0 0.0 0.00 0.00 0.00 87 1014.2
20260504025056 2 62 0.0 0.0 0.00 0.00 0.00 87 1014.3
20260504024553 2 62 0.0 0.0 0.00 0.00 0.00 86 1014.2
20260504024050 2 62 0.0 0.0 0.00 0.00 0.00 85 1014.3
20260504023546 2 62 0.0 0.0 0.00 0.00 0.00 85 1014.5
20260504023042 2 62 0.0 0.0 0.00 0.00 0.00 85 1014.3
20260504022538 2 59 0.0 0.0 0.00 0.00 0.00 86 1014.2
20260504022035 3 57 0.0 0.0 0.00 0.00 0.00 86 1014.5
20260504021532 3 57 0.0 0.0 0.00 0.00 0.00 85 1014.3
20260504021029 3 58 0.0 0.0 0.00 0.00 0.00 85 1014.4
20260504020526 3 55 0.0 0.0 0.00 0.00 0.00 84 1014.5
20260504020022 3 55 0.0 0.0 0.00 0.00 0.00 84 1014.6
20260504015519 3 53 0.0 0.0 0.00 0.00 0.00 84 1014.5
20260504015015 3 49 0.0 0.0 0.00 0.00 0.00 83 1014.6
20260504014511 3 49 0.0 0.0 0.00 0.00 0.00 84 1014.4
20260504014008 3 48 0.0 0.0 0.00 0.00 0.00 83 1014.4
20260504013506 3 46 0.0 0.0 0.00 0.00 0.00 83 1014.3
20260504013003 3 23 0.0 0.0 0.00 0.00 0.00 82 1014.3
20260504012500 4 23 0.0 0.0 0.00 0.00 0.00 82 1014.2
20260504011958 4 23 0.0 0.0 0.00 0.00 0.00 82 1014.3
20260504011454 4 23 0.0 0.0 0.00 0.00 0.00 79 1013.9
20260504010950 4 23 0.0 0.0 0.00 0.00 0.00 79 1013.9
20260504010446 4 23 0.0 0.0 0.00 0.00 0.00 81 1014.0
20260504005942 5 23 0.0 0.0 0.00 0.00 0.00 81 1014.0
20260504005439 5 22 0.0 0.0 0.00 0.00 0.00 78 1013.9
20260504004937 5 22 0.0 0.0 0.00 0.00 0.00 78 1013.8
20260504004434 5 22 0.0 0.0 0.00 0.00 0.00 74 1013.6
20260504003931 6 22 0.0 0.0 0.00 0.00 0.00 74 1013.5
20260504003427 6 22 0.0 0.0 0.00 0.00 0.00 75 1013.6
20260504002924 7 22 0.0 0.0 0.00 0.00 0.00 69 1013.7
20260504002421 7 22 0.0 0.0 0.00 0.00 0.00 75 1013.5
20260504001919 7 22 0.0 0.0 0.00 0.00 0.00 70 1013.6
20260504001416 7 22 0.0 0.0 0.00 0.00 0.00 70 1013.5
20260504000912 7 22 0.0 0.0 0.00 0.00 0.00 67 1013.4
20260504000410 7 22 0.0 0.0 0.00 0.00 0.00 67 1013.3
20260503235907 7 22 0.0 0.0 0.00 0.00 0.00 68 1013.4
20260503235405 8 22 0.0 0.0 0.00 0.00 0.00 68 1013.1
20260503234902 8 22 0.0 0.0 0.00 0.00 0.00 67 1013.1
20260503234359 9 22 0.0 0.0 0.00 0.00 0.00 56 1013.0
20260503233857 10 25 0.0 0.0 0.00 0.00 0.00 53 1013.0
20260503233353 10 25 0.0 0.0 0.00 0.00 0.00 47 1012.8
20260503232850 10 56 0.0 1.6 0.00 0.00 0.00 47 1012.8
20260503232347 11 24 0.0 0.0 0.00 0.00 0.00 44 1012.7
20260503231845 11 359 0.0 0.0 0.00 0.00 0.00 43 1012.6
20260503231342 11 7 0.0 0.0 0.00 0.00 0.00 44 1012.9
20260503230838 11 337 0.0 1.6 0.00 0.00 0.00 43 1012.7
20260503230335 11 7 0.0 0.0 0.00 0.00 0.00 42 1012.6
20260503225833 11 9 1.6 1.6 0.00 0.00 0.00 40 1012.7
20260503225328 11 342 4.8 8.0 0.00 0.00 0.00 38 1012.8
20260503224825 11 14 0.0 0.0 0.00 0.00 0.00 39 1012.7
20260503224322 11 340 1.6 4.8 0.00 0.00 0.00 39 1012.6
20260503223820 12 11 0.0 1.6 0.00 0.00 0.00 38 1012.5
20260503223317 12 352 1.6 3.2 0.00 0.00 0.00 36 1012.4
20260503222813 12 46 0.0 0.0 0.00 0.00 0.00 37 1012.4
20260503222311 13 346 6.4 12.9 0.00 0.00 0.00 35 1012.5
20260503221809 13 326 1.6 1.6 0.00 0.00 0.00 36 1012.5
20260503221308 13 34 0.0 0.0 0.00 0.00 0.00 39 1012.3
20260503220803 13 331 1.6 4.8 0.00 0.00 0.00 36 1012.3
20260503220300 13 47 4.8 8.0 0.00 0.00 0.00 37 1012.5
20260503215757 13 337 3.2 4.8 0.00 0.00 0.00 37 1012.4